Location: Contre
(49.7477°N, 2.0963°E)
Time: 12:29:32
(UTC+00:00)

Meteor 2-12 Rocket - Pass Details

Date: 10 August 2024
Orbit: 936 x 956 km, 82.5° (Epoch: 14 September)

Event Time Altitude Azimuth Distance (km) Brightness Sun altitude
Rises 23:05:59 0° 356° (N) 3,613 8.8 -24.1°
Reaches altitude 10° 23:09:01 10° 11° (N) 2,667 7.7 -24.2°
Maximum altitude 23:13:50 24° 63° (ENE) 1,859 6.1 -24.4°
Enters shadow 23:16:40 17° 100° (E) 2,173 6.1 -24.5°
